| time (UTC) | temp F | wind direction | speed MPH | gust MPH | rain 1hr in | rain 24hr in | rain mn in | humidity % | barometer mb |
| 20260902082624 | 69 | 326 | 1.0 | 1.0 | 0.00 | 0.00 | 0.00 | 99 | 1017.4 |
| 20260902082120 | 69 | 279 | 0.0 | 0.0 | 0.00 | 0.00 | 0.00 | 99 | 1017.4 |
| 20260902081617 | 69 | 255 | 0.0 | 0.0 | 0.00 | 0.00 | 0.00 | 99 | 1017.3 |
| 20260902081116 | 68 | 242 | 0.0 | 0.0 | 0.00 | 0.00 | 0.00 | 99 | 1017.4 |
| 20260902080612 | 68 | 278 | 0.0 | 0.0 | 0.00 | 0.00 | 0.00 | 99 | 1017.2 |
| 20260902080108 | 68 | 294 | 0.0 | 0.0 | 0.00 | 0.00 | 0.00 | 99 | 1017.1 |
| 20260902075607 | 68 | 9 | 1.0 | 1.0 | 0.00 | 0.00 | 0.00 | 99 | 1017.3 |
| 20260902075104 | 68 | 221 | 1.0 | 1.0 | 0.00 | 0.00 | 0.00 | 99 | 1017.2 |
| 20260902074559 | 68 | 200 | 1.0 | 1.0 | 0.00 | 0.00 | 0.00 | 99 | 1017.4 |
| 20260902074054 | 68 | 213 | 1.0 | 1.0 | 0.00 | 0.00 | 0.00 | 99 | 1017.5 |
| 20260902073549 | 68 | 244 | 0.0 | 0.0 | 0.00 | 0.00 | 0.00 | 99 | 1017.2 |
| 20260902073046 | 68 | 281 | 0.0 | 1.0 | 0.00 | 0.00 | 0.00 | 99 | 1017.6 |
| 20260902072541 | 68 | 351 | 1.0 | 1.0 | 0.00 | 0.00 | 0.00 | 99 | 1017.3 |
| 20260902072038 | 68 | 45 | 2.0 | 2.0 | 0.00 | 0.00 | 0.00 | 99 | 1017.3 |
| 20260902071537 | 68 | 52 | 2.0 | 2.0 | 0.00 | 0.00 | 0.00 | 99 | 1017.3 |
| 20260902071033 | 68 | 74 | 2.0 | 2.0 | 0.00 | 0.00 | 0.00 | 99 | 1017.4 |
| 20260902070529 | 68 | 70 | 2.0 | 2.0 | 0.00 | 0.00 | 0.00 | 99 | 1017.3 |
| 20260902070023 | 68 | 72 | 2.0 | 2.0 | 0.00 | 0.00 | 0.00 | 99 | 1017.5 |
| 20260902065517 | 68 | 45 | 1.0 | 2.0 | 0.00 | 0.00 | 0.00 | 99 | 1017.8 |
| 20260902065013 | 68 | 46 | 2.0 | 3.0 | 0.00 | 0.00 | 0.00 | 99 | 1017.6 |
| 20260902064509 | 69 | 33 | 3.0 | 3.0 | 0.00 | 0.00 | 0.00 | 99 | 1017.4 |
| 20260902064004 | 69 | 41 | 1.0 | 2.0 | 0.00 | 0.00 | 0.00 | 99 | 1017.6 |
| 20260902063503 | 69 | 44 | 0.0 | 1.0 | 0.00 | 0.00 | 0.00 | 99 | 1017.5 |
| 20260902062958 | 69 | 43 | 1.0 | 1.0 | 0.00 | 0.00 | 0.00 | 99 | 1017.5 |
| 20260902062451 | 69 | 61 | 1.0 | 1.0 | 0.00 | 0.00 | 0.00 | 99 | 1017.5 |
| 20260902061947 | 69 | 90 | 3.0 | 3.0 | 0.00 | 0.00 | 0.00 | 99 | 1017.4 |
| 20260902061442 | 69 | 78 | 1.0 | 1.0 | 0.00 | 0.00 | 0.00 | 99 | 1017.6 |
| 20260902060938 | 69 | 53 | 0.0 | 0.0 | 0.00 | 0.00 | 0.00 | 99 | 1017.6 |
| 20260902060434 | 69 | 35 | 2.0 | 2.0 | 0.00 | 0.00 | 0.00 | 99 | 1017.5 |
| 20260902055930 | 69 | 37 | 1.0 | 1.0 | 0.00 | 0.00 | 0.00 | 99 | 1017.6 |
| 20260902055426 | 69 | 21 | 1.0 | 1.0 | 0.00 | 0.00 | 0.00 | 99 | 1017.5 |
| 20260902054921 | 69 | 336 | 0.0 | 1.0 | 0.00 | 0.00 | 0.00 | 99 | 1017.6 |
| 20260902054416 | 69 | 49 | 1.0 | 1.0 | 0.00 | 0.00 | 0.00 | 99 | 1017.5 |
| 20260902053911 | 69 | 33 | 2.0 | 2.0 | 0.00 | 0.00 | 0.00 | 99 | 1017.5 |
| 20260902053407 | 69 | 322 | 0.0 | 1.0 | 0.00 | 0.00 | 0.00 | 99 | 1017.4 |
| 20260902052905 | 69 | 12 | 1.0 | 2.0 | 0.00 | 0.00 | 0.00 | 99 | 1017.5 |
| 20260902052401 | 69 | 313 | 0.0 | 0.0 | 0.00 | 0.00 | 0.00 | 99 | 1017.3 |
| 20260902051855 | 69 | 308 | 1.0 | 1.0 | 0.00 | 0.00 | 0.00 | 99 | 1017.5 |
| 20260902051350 | 69 | 279 | 0.0 | 0.0 | 0.00 | 0.00 | 0.00 | 99 | 1017.5 |
| 20260902050850 | 69 | 342 | 0.0 | 1.0 | 0.00 | 0.00 | 0.00 | 99 | 1017.4 |
| 20260902050349 | 69 | 247 | 0.0 | 0.0 | 0.00 | 0.00 | 0.00 | 99 | 1017.2 |
| 20260902045844 | 69 | 249 | 0.0 | 0.0 | 0.00 | 0.00 | 0.00 | 99 | 1017.2 |
| 20260902045340 | 69 | 237 | 1.0 | 1.0 | 0.00 | 0.00 | 0.00 | 99 | 1017.1 |
| 20260902044836 | 69 | 344 | 0.0 | 1.0 | 0.00 | 0.00 | 0.00 | 99 | 1017.3 |
| 20260902044332 | 69 | 213 | 1.0 | 1.0 | 0.00 | 0.00 | 0.00 | 99 | 1017.5 |
| 20260902043831 | 69 | 264 | 0.0 | 0.0 | 0.00 | 0.00 | 0.00 | 99 | 1017.1 |
| 20260902043327 | 69 | 275 | 0.0 | 0.0 | 0.00 | 0.00 | 0.00 | 99 | 1017.0 |
| 20260902042827 | 69 | 267 | 0.0 | 0.0 | 0.00 | 0.00 | 0.00 | 99 | 1017.1 |
| 20260902042321 | 69 | 249 | 0.0 | 0.0 | 0.00 | 0.00 | 0.00 | 99 | 1017.2 |
| 20260902041817 | 69 | 240 | 0.0 | 1.0 | 0.00 | 0.00 | 0.00 | 99 | 1017.0 |
| 20260902041316 | 69 | 169 | 2.0 | 2.0 | 0.00 | 0.00 | 0.00 | 99 | 1017.0 |
| 20260902040815 | 69 | 137 | 1.0 | 2.0 | 0.00 | 0.00 | 0.00 | 99 | 1016.7 |
| 20260902040311 | 69 | 15 | 1.0 | 1.0 | 0.00 | 0.00 | 0.00 | 99 | 1016.8 |
| 20260902035809 | 69 | 279 | 0.0 | 0.0 | 0.00 | 0.15 | 0.15 | 99 | 1016.8 |
| 20260902035306 | 69 | 266 | 0.0 | 0.0 | 0.00 | 0.15 | 0.15 | 99 | 1016.8 |
| 20260902034804 | 69 | 248 | 0.0 | 0.0 | 0.00 | 0.15 | 0.15 | 99 | 1016.8 |
| 20260902034300 | 69 | 221 | 0.0 | 1.0 | 0.00 | 0.15 | 0.15 | 99 | 1016.7 |
| 20260902033757 | 69 | 31 | 0.0 | 0.0 | 0.00 | 0.15 | 0.15 | 99 | 1016.6 |
| 20260902033253 | 69 | 18 | 1.0 | 1.0 | 0.00 | 0.15 | 0.15 | 99 | 1016.2 |
| 20260902032751 | 70 | 326 | 0.0 | 0.0 | 0.00 | 0.15 | 0.15 | 99 | 1016.2 |
| 20260902032247 | 70 | 355 | 1.0 | 1.0 | 0.00 | 0.15 | 0.15 | 99 | 1016.7 |
| 20260902031746 | 70 | 355 | 0.0 | 0.0 | 0.00 | 0.15 | 0.15 | 99 | 1016.7 |
| 20260902031242 | 70 | 264 | 0.0 | 0.0 | 0.00 | 0.15 | 0.15 | 99 | 1016.6 |
| 20260902030738 | 70 | 250 | 0.0 | 0.0 | 0.00 | 0.15 | 0.15 | 98 | 1016.7 |
| 20260902030237 | 70 | 237 | 0.0 | 0.0 | 0.00 | 0.15 | 0.15 | 99 | 1016.9 |
| 20260902025736 | 70 | 236 | 0.0 | 0.0 | 0.00 | 0.15 | 0.15 | 99 | 1016.5 |
| 20260902025232 | 70 | 236 | 0.0 | 0.0 | 0.00 | 0.15 | 0.15 | 99 | 1016.6 |
| 20260902024727 | 70 | 82 | 1.0 | 1.0 | 0.00 | 0.15 | 0.15 | 99 | 1016.6 |
| 20260902024222 | 70 | 328 | 0.0 | 1.0 | 0.00 | 0.15 | 0.15 | 98 | 1016.7 |
| 20260902023718 | 71 | 320 | 0.0 | 0.0 | 0.00 | 0.15 | 0.15 | 98 | 1016.6 |
| 20260902023213 | 71 | 308 | 1.0 | 1.0 | 0.00 | 0.15 | 0.15 | 99 | 1016.7 |
| 20260902022712 | 70 | 291 | 0.0 | 1.0 | 0.00 | 0.15 | 0.15 | 99 | 1016.7 |
| 20260902022208 | 71 | 304 | 0.0 | 0.0 | 0.00 | 0.15 | 0.15 | 98 | 1016.7 |
| 20260902021703 | 71 | 308 | 1.0 | 1.0 | 0.00 | 0.15 | 0.15 | 98 | 1016.6 |
| 20260902021157 | 71 | 136 | 1.0 | 1.0 | 0.00 | 0.15 | 0.15 | 98 | 1016.6 |
| 20260902020654 | 71 | 140 | 1.0 | 1.0 | 0.00 | 0.15 | 0.15 | 98 | 1016.6 |
| 20260902020149 | 71 | 298 | 0.0 | 0.0 | 0.00 | 0.15 | 0.15 | 98 | 1016.7 |
| 20260902015645 | 71 | 281 | 0.0 | 0.0 | 0.00 | 0.15 | 0.15 | 98 | 1016.9 |
| 20260902015141 | 71 | 274 | 0.0 | 0.0 | 0.00 | 0.15 | 0.15 | 98 | 1016.3 |
| 20260902014637 | 72 | 288 | 0.0 | 0.0 | 0.00 | 0.15 | 0.15 | 98 | 1016.5 |
| 20260902014132 | 72 | 239 | 0.0 | 0.0 | 0.00 | 0.15 | 0.15 | 98 | 1016.5 |
| 20260902013632 | 72 | 214 | 1.0 | 1.0 | 0.00 | 0.15 | 0.15 | 98 | 1016.3 |
| 20260902013128 | 72 | 254 | 0.0 | 0.0 | 0.00 | 0.15 | 0.15 | 98 | 1016.2 |
| 20260902012622 | 72 | 260 | 0.0 | 0.0 | 0.00 | 0.15 | 0.15 | 98 | 1016.3 |
| 20260902012118 | 72 | 252 | 0.0 | 0.0 | 0.00 | 0.15 | 0.15 | 98 | 1016.1 |
| 20260902011613 | 72 | 251 | 0.0 | 0.0 | 0.00 | 0.15 | 0.15 | 98 | 1015.8 |
| 20260902011113 | 72 | 263 | 0.0 | 0.0 | 0.00 | 0.15 | 0.15 | 98 | 1016.0 |
| 20260902010607 | 72 | 301 | 0.0 | 1.0 | 0.00 | 0.15 | 0.15 | 97 | 1015.7 |
| 20260902005600 | 73 | 256 | 0.0 | 0.0 | 0.00 | 0.15 | 0.15 | 98 | 1015.8 |
| 20260902005057 | 73 | 245 | 0.0 | 1.0 | 0.00 | 0.15 | 0.15 | 97 | 1015.8 |
| 20260902004556 | 73 | 252 | 0.0 | 0.0 | 0.00 | 0.15 | 0.15 | 97 | 1015.7 |
| 20260902004051 | 73 | 255 | 0.0 | 0.0 | 0.00 | 0.15 | 0.15 | 97 | 1015.7 |
| 20260902003547 | 73 | 286 | 0.0 | 0.0 | 0.00 | 0.15 | 0.15 | 97 | 1015.4 |
| 20260902003042 | 73 | 342 | 1.0 | 1.0 | 0.00 | 0.15 | 0.15 | 97 | 1015.5 |
| 20260902002538 | 73 | 2 | 0.0 | 0.0 | 0.00 | 0.15 | 0.15 | 97 | 1015.4 |
| 20260902002032 | 73 | 82 | 1.0 | 1.0 | 0.00 | 0.15 | 0.15 | 97 | 1015.3 |
| 20260902001527 | 73 | 248 | 0.0 | 0.0 | 0.00 | 0.15 | 0.15 | 96 | 1015.3 |
| 20260902001022 | 73 | 260 | 0.0 | 0.0 | 0.00 | 0.15 | 0.15 | 96 | 1015.4 |
| 20260902000517 | 73 | 257 | 0.0 | 0.0 | 0.00 | 0.15 | 0.15 | 96 | 1015.2 |
| 20260902000013 | 73 | 201 | 1.0 | 1.0 | 0.00 | 0.15 | 0.15 | 95 | 1015.1 |
| 20260901235507 | 74 | 196 | 0.0 | 0.0 | 0.00 | 0.15 | 0.15 | 95 | 1015.2 |
| 20260901235003 | 75 | 253 | 0.0 | 0.0 | 0.00 | 0.15 | 0.15 | 95 | 1015.0 |
| 20260901234501 | 75 | 268 | 0.0 | 0.0 | 0.00 | 0.15 | 0.15 | 95 | 1015.1 |
| 20260901233956 | 75 | 265 | 0.0 | 0.0 | 0.00 | 0.15 | 0.15 | 94 | 1015.0 |
| 20260901233451 | 75 | 256 | 0.0 | 0.0 | 0.00 | 0.15 | 0.15 | 94 | 1015.1 |
| 20260901232947 | 75 | 288 | 0.0 | 0.0 | 0.00 | 0.15 | 0.15 | 93 | 1015.0 |
| 20260901232442 | 76 | 343 | 1.0 | 1.0 | 0.00 | 0.15 | 0.15 | 92 | 1014.8 |
| 20260901231937 | 77 | 257 | 0.0 | 0.0 | 0.00 | 0.15 | 0.15 | 90 | 1014.7 |
| 20260901231434 | 78 | 235 | 1.0 | 1.0 | 0.00 | 0.15 | 0.15 | 88 | 1014.9 |
| 20260901230930 | 78 | 262 | 0.0 | 0.0 | 0.00 | 0.15 | 0.15 | 86 | 1015.0 |
| 20260901230429 | 78 | 269 | 0.0 | 0.0 | 0.00 | 0.15 | 0.15 | 85 | 1015.0 |
| 20260901225925 | 78 | 306 | 0.0 | 0.0 | 0.00 | 0.15 | 0.15 | 85 | 1014.8 |
| 20260901225425 | 79 | 32 | 0.0 | 1.0 | 0.00 | 0.15 | 0.15 | 84 | 1014.9 |
| 20260901224920 | 79 | 309 | 2.0 | 2.0 | 0.00 | 0.15 | 0.15 | 83 | 1014.8 |
| 20260901224416 | 80 | 309 | 1.0 | 1.0 | 0.00 | 0.15 | 0.15 | 82 | 1014.8 |
| 20260901223912 | 80 | 265 | 1.0 | 1.0 | 0.00 | 0.15 | 0.15 | 80 | 1014.8 |
| 20260901223407 | 81 | 276 | 1.0 | 2.0 | 0.00 | 0.15 | 0.15 | 79 | 1015.0 |
| 20260901222902 | 82 | 281 | 0.0 | 0.0 | 0.00 | 0.15 | 0.15 | 79 | 1014.7 |
| 20260901222359 | 81 | 269 | 0.0 | 0.0 | 0.00 | 0.15 | 0.15 | 80 | 1014.8 |
| 20260901221854 | 81 | 269 | 0.0 | 0.0 | 0.00 | 0.15 | 0.15 | 81 | 1014.7 |
| 20260901221349 | 81 | 253 | 0.0 | 0.0 | 0.00 | 0.15 | 0.15 | 81 | 1014.8 |
| 20260901220844 | 80 | 275 | 0.0 | 0.0 | 0.00 | 0.15 | 0.15 | 82 | 1014.7 |
| 20260901220343 | 80 | 269 | 0.0 | 0.0 | 0.00 | 0.15 | 0.15 | 83 | 1014.9 |
| 20260901215842 | 80 | 256 | 0.0 | 0.0 | 0.00 | 0.15 | 0.15 | 83 | 1014.9 |
| 20260901215341 | 80 | 261 | 0.0 | 0.0 | 0.00 | 0.15 | 0.15 | 82 | 1014.8 |
| 20260901214840 | 80 | 265 | 0.0 | 0.0 | 0.00 | 0.15 | 0.15 | 82 | 1014.8 |
| 20260901214339 | 80 | 272 | 1.0 | 1.0 | 0.00 | 0.15 | 0.15 | 83 | 1014.7 |
| 20260901213834 | 80 | 249 | 0.0 | 0.0 | 0.00 | 0.15 | 0.15 | 82 | 1014.5 |
| 20260901213334 | 80 | 277 | 2.0 | 2.0 | 0.00 | 0.15 | 0.15 | 81 | 1014.6 |
| 20260901212828 | 80 | 276 | 1.0 | 1.0 | 0.00 | 0.15 | 0.15 | 81 | 1014.7 |
| 20260901212324 | 80 | 272 | 1.0 | 1.0 | 0.00 | 0.15 | 0.15 | 80 | 1014.5 |
| 20260901211820 | 80 | 164 | 1.0 | 1.0 | 0.00 | 0.15 | 0.15 | 80 | 1014.4 |
| 20260901211316 | 80 | 322 | 1.0 | 1.0 | 0.00 | 0.15 | 0.15 | 80 | 1014.5 |
| 20260901210811 | 80 | 315 | 3.0 | 3.0 | 0.00 | 0.15 | 0.15 | 80 | 1014.7 |
| 20260901210307 | 80 | 338 | 4.0 | 5.0 | 0.00 | 0.15 | 0.15 | 80 | 1014.5 |
| 20260901205803 | 80 | 308 | 2.0 | 2.0 | 0.00 | 0.15 | 0.15 | 82 | 1014.6 |
| 20260901205306 | 80 | 327 | 3.0 | 3.0 | 0.00 | 0.15 | 0.15 | 82 | 1014.4 |
| 20260901204757 | 80 | 234 | 2.0 | 3.0 | 0.00 | 0.15 | 0.15 | 83 | 1014.8 |
| 20260901204253 | 80 | 223 | 4.0 | 6.0 | 0.00 | 0.15 | 0.15 | 83 | 1014.7 |
| 20260901203748 | 79 | 211 | 3.0 | 3.0 | 0.00 | 0.15 | 0.15 | 84 | 1014.7 |
| 20260901203248 | 79 | 220 | 2.0 | 2.0 | 0.00 | 0.15 | 0.15 | 85 | 1014.6 |
| 20260901202742 | 79 | 197 | 3.0 | 3.0 | 0.00 | 0.15 | 0.15 | 84 | 1014.7 |
| 20260901202238 | 79 | 241 | 2.0 | 2.0 | 0.00 | 0.15 | 0.15 | 85 | 1014.8 |
| 20260901201733 | 79 | 206 | 3.0 | 3.0 | 0.00 | 0.15 | 0.15 | 86 | 1014.7 |
| 20260901201232 | 78 | 199 | 3.0 | 3.0 | 0.00 | 0.15 | 0.15 | 86 | 1014.7 |
| 20260901200727 | 78 | 233 | 3.0 | 3.0 | 0.00 | 0.15 | 0.15 | 87 | 1014.8 |
| 20260901200222 | 78 | 211 | 3.0 | 5.0 | 0.00 | 0.15 | 0.15 | 86 | 1014.8 |
| 20260901195720 | 78 | 223 | 2.0 | 2.0 | 0.00 | 0.15 | 0.15 | 86 | 1014.8 |
| 20260901195220 | 78 | 256 | 2.0 | 2.0 | 0.00 | 0.15 | 0.15 | 87 | 1015.0 |
| 20260901194715 | 78 | 205 | 3.0 | 3.0 | 0.00 | 0.15 | 0.15 | 86 | 1014.9 |
| 20260901194205 | 78 | 196 | 3.0 | 3.0 | 0.00 | 0.15 | 0.15 | 88 | 1014.8 |
| 20260901193701 | 77 | 222 | 3.0 | 3.0 | 0.00 | 0.15 | 0.15 | 87 | 1014.9 |
| 20260901193154 | 78 | 191 | 5.0 | 6.0 | 0.00 | 0.15 | 0.15 | 87 | 1015.1 |
| 20260901192649 | 78 | 219 | 4.0 | 5.0 | 0.00 | 0.15 | 0.15 | 87 | 1014.8 |
| 20260901192144 | 78 | 221 | 2.0 | 2.0 | 0.00 | 0.15 | 0.15 | 87 | 1014.9 |
| 20260901191640 | 78 | 251 | 2.0 | 2.0 | 0.00 | 0.15 | 0.15 | 86 | 1014.9 |
| 20260901191136 | 79 | 221 | 3.0 | 3.0 | 0.00 | 0.15 | 0.15 | 85 | 1014.9 |
| 20260901190632 | 78 | 228 | 5.0 | 5.0 | 0.00 | 0.15 | 0.15 | 85 | 1014.9 |
| 20260901190131 | 78 | 205 | 6.0 | 8.0 | 0.00 | 0.15 | 0.15 | 85 | 1015.0 |
| 20260901185630 | 78 | 207 | 5.0 | 6.0 | 0.00 | 0.15 | 0.15 | 86 | 1014.7 |
| 20260901185128 | 78 | 213 | 5.0 | 6.0 | 0.00 | 0.15 | 0.15 | 85 | 1014.8 |
| 20260901184624 | 78 | 214 | 4.0 | 5.0 | 0.00 | 0.15 | 0.15 | 85 | 1014.7 |
| 20260901184119 | 78 | 208 | 5.0 | 6.0 | 0.00 | 0.15 | 0.15 | 87 | 1014.7 |
| 20260901183614 | 77 | 207 | 5.0 | 6.0 | 0.00 | 0.15 | 0.15 | 86 | 1014.6 |
| 20260901183109 | 77 | 205 | 6.0 | 7.0 | 0.00 | 0.15 | 0.15 | 86 | 1014.7 |
| 20260901182605 | 77 | 222 | 6.0 | 7.0 | 0.00 | 0.15 | 0.15 | 86 | 1014.7 |
| 20260901182104 | 77 | 235 | 5.0 | 6.0 | 0.00 | 0.15 | 0.15 | 86 | 1014.7 |
| 20260901181559 | 77 | 242 | 6.0 | 7.0 | 0.00 | 0.15 | 0.15 | 85 | 1014.4 |
| 20260901181058 | 78 | 204 | 5.0 | 6.0 | 0.00 | 0.15 | 0.15 | 85 | 1014.4 |
| 20260901180557 | 78 | 212 | 5.0 | 6.0 | 0.00 | 0.15 | 0.15 | 86 | 1014.4 |
| 20260901180052 | 78 | 202 | 4.0 | 5.0 | 0.00 | 0.15 | 0.15 | 85 | 1014.5 |
| 20260901175546 | 77 | 206 | 7.0 | 7.0 | 0.00 | 0.15 | 0.15 | 86 | 1014.6 |
| 20260901175045 | 77 | 224 | 6.0 | 7.0 | 0.00 | 0.15 | 0.15 | 87 | 1014.4 |
| 20260901174542 | 76 | 233 | 4.0 | 5.0 | 0.00 | 0.15 | 0.15 | 89 | 1014.6 |
| 20260901174037 | 75 | 238 | 4.0 | 5.0 | 0.00 | 0.15 | 0.15 | 89 | 1014.7 |
| 20260901173532 | 75 | 199 | 4.0 | 5.0 | 0.00 | 0.15 | 0.15 | 90 | 1014.4 |
| 20260901173028 | 75 | 220 | 7.0 | 7.0 | 0.00 | 0.15 | 0.15 | 91 | 1014.3 |
| 20260901172523 | 74 | 243 | 5.0 | 6.0 | 0.00 | 0.15 | 0.15 | 90 | 1014.5 |
| 20260901172021 | 73 | 226 | 4.0 | 5.0 | 0.00 | 0.15 | 0.15 | 92 | 1014.7 |
| 20260901171521 | 73 | 246 | 3.0 | 3.0 | 0.00 | 0.15 | 0.15 | 92 | 1014.5 |
| 20260901171020 | 73 | 231 | 2.0 | 2.0 | 0.00 | 0.15 | 0.15 | 92 | 1014.4 |
| 20260901170514 | 73 | 227 | 1.0 | 2.0 | 0.00 | 0.15 | 0.15 | 92 | 1014.7 |
| 20260901170014 | 73 | 249 | 3.0 | 3.0 | 0.00 | 0.15 | 0.15 | 93 | 1014.5 |
| 20260901165509 | 73 | 223 | 3.0 | 3.0 | 0.00 | 0.15 | 0.15 | 93 | 1014.9 |
| 20260901165004 | 73 | 299 | 2.0 | 2.0 | 0.00 | 0.15 | 0.15 | 93 | 1014.6 |
| 20260901164500 | 73 | 256 | 1.0 | 1.0 | 0.00 | 0.15 | 0.15 | 93 | 1014.5 |
| 20260901163954 | 73 | 234 | 3.0 | 5.0 | 0.00 | 0.15 | 0.15 | 93 | 1014.4 |
| 20260901163450 | 73 | 224 | 5.0 | 6.0 | 0.00 | 0.15 | 0.15 | 93 | 1014.6 |
| 20260901162948 | 73 | 236 | 3.0 | 5.0 | 0.00 | 0.15 | 0.15 | 93 | 1014.7 |
| 20260901162444 | 73 | 241 | 3.0 | 5.0 | 0.00 | 0.15 | 0.15 | 93 | 1014.8 |
| 20260901161943 | 73 | 240 | 2.0 | 3.0 | 0.00 | 0.15 | 0.15 | 92 | 1014.7 |
| 20260901161443 | 73 | 240 | 1.0 | 5.0 | 0.00 | 0.15 | 0.15 | 93 | 1014.9 |
| 20260901160937 | 73 | 250 | 1.0 | 1.0 | 0.00 | 0.15 | 0.15 | 93 | 1014.7 |
| 20260901160433 | 73 | 250 | 2.0 | 3.0 | 0.00 | 0.15 | 0.15 | 94 | 1014.7 |
| 20260901155933 | 73 | 223 | 3.0 | 5.0 | 0.00 | 0.15 | 0.15 | 94 | 1014.9 |
| 20260901155433 | 72 | 217 | 5.0 | 6.0 | 0.00 | 0.15 | 0.15 | 94 | 1014.9 |
| 20260901154929 | 72 | 220 | 3.0 | 3.0 | 0.00 | 0.15 | 0.15 | 94 | 1014.9 |
| 20260901154429 | 72 | 229 | 5.0 | 5.0 | 0.00 | 0.15 | 0.15 | 95 | 1014.9 |
| 20260901153923 | 72 | 218 | 5.0 | 6.0 | 0.00 | 0.15 | 0.15 | 95 | 1014.6 |
| 20260901153418 | 71 | 237 | 4.0 | 5.0 | 0.00 | 0.15 | 0.15 | 95 | 1014.9 |
| 20260901152912 | 71 | 273 | 1.0 | 2.0 | 0.00 | 0.15 | 0.15 | 95 | 1015.0 |
| 20260901152407 | 71 | 235 | 5.0 | 7.0 | 0.00 | 0.15 | 0.15 | 95 | 1015.0 |
| 20260901151901 | 71 | 236 | 2.0 | 2.0 | 0.00 | 0.15 | 0.15 | 95 | 1015.1 |
| 20260901151356 | 71 | 238 | 3.0 | 3.0 | 0.00 | 0.15 | 0.15 | 95 | 1015.1 |
| 20260901150855 | 71 | 228 | 2.0 | 3.0 | 0.00 | 0.15 | 0.15 | 95 | 1015.0 |
| 20260901150353 | 71 | 226 | 3.0 | 3.0 | 0.00 | 0.15 | 0.15 | 96 | 1015.1 |
| 20260901145850 | 71 | 245 | 2.0 | 2.0 | 0.00 | 0.15 | 0.15 | 96 | 1015.1 |
| 20260901145345 | 71 | 192 | 7.0 | 8.0 | 0.00 | 0.15 | 0.15 | 96 | 1014.8 |
| 20260901144840 | 71 | 217 | 5.0 | 6.0 | 0.00 | 0.15 | 0.15 | 97 | 1015.1 |
| 20260901144335 | 71 | 234 | 5.0 | 7.0 | 0.00 | 0.15 | 0.15 | 98 | 1014.9 |
| 20260901143831 | 71 | 232 | 5.0 | 6.0 | 0.00 | 0.15 | 0.15 | 98 | 1015.0 |
| 20260901143327 | 71 | 223 | 4.0 | 6.0 | 0.00 | 0.15 | 0.15 | 98 | 1014.9 |
| 20260901142824 | 71 | 235 | 4.0 | 5.0 | 0.00 | 0.15 | 0.15 | 98 | 1014.9 |
| 20260901142322 | 71 | 242 | 2.0 | 2.0 | 0.00 | 0.15 | 0.15 | 99 | 1014.8 |
| 20260901141817 | 71 | 241 | 3.0 | 3.0 | 0.00 | 0.15 | 0.15 | 99 | 1014.9 |
| 20260901141312 | 71 | 232 | 3.0 | 5.0 | 0.00 | 0.15 | 0.15 | 99 | 1014.7 |
| 20260901140811 | 71 | 207 | 5.0 | 7.0 | 0.00 | 0.15 | 0.15 | 99 | 1014.9 |
| 20260901140309 | 71 | 246 | 3.0 | 5.0 | 0.00 | 0.15 | 0.15 | 99 | 1014.7 |
| 20260901135805 | 71 | 226 | 4.0 | 5.0 | 0.00 | 0.15 | 0.15 | 99 | 1014.8 |
| 20260901135259 | 71 | 230 | 0.0 | 1.0 | 0.00 | 0.15 | 0.15 | 99 | 1014.8 |
| 20260901134755 | 71 | 315 | 2.0 | 3.0 | 0.00 | 0.15 | 0.15 | 99 | 1014.7 |
| 20260901134254 | 69 | 260 | 0.0 | 0.0 | 0.00 | 0.15 | 0.15 | 99 | 1014.9 |
| 20260901133749 | 69 | 209 | 1.0 | 1.0 | 0.00 | 0.15 | 0.15 | 99 | 1015.0 |
| 20260901133249 | 69 | 270 | 2.0 | 2.0 | 0.00 | 0.15 | 0.15 | 99 | 1015.3 |
| 20260901132747 | 69 | 267 | 1.0 | 1.0 | 0.00 | 0.15 | 0.15 | 99 | 1015.4 |
| 20260901132242 | 69 | 258 | 1.0 | 1.0 | 0.00 | 0.15 | 0.15 | 99 | 1015.7 |
| 20260901131737 | 69 | 221 | 3.0 | 3.0 | 0.00 | 0.15 | 0.15 | 99 | 1015.3 |
| 20260901131236 | 68 | 270 | 0.0 | 1.0 | 0.00 | 0.15 | 0.15 | 99 | 1015.2 |
| 20260901130732 | 68 | 279 | 1.0 | 1.0 | 0.00 | 0.15 | 0.15 | 99 | 1015.4 |
| 20260901130231 | 68 | 270 | 0.0 | 0.0 | 0.00 | 0.15 | 0.15 | 99 | 1015.2 |
| 20260901125729 | 68 | 315 | 2.0 | 2.0 | 0.00 | 0.15 | 0.15 | 99 | 1015.2 |
| 20260901125224 | 68 | 327 | 1.0 | 1.0 | 0.00 | 0.15 | 0.15 | 99 | 1015.3 |
| 20260901124718 | 67 | 265 | 0.0 | 0.0 | 0.00 | 0.15 | 0.15 | 99 | 1015.5 |
| 20260901124213 | 67 | 272 | 1.0 | 1.0 | 0.00 | 0.15 | 0.15 | 99 | 1015.4 |
| 20260901123713 | 67 | 260 | 0.0 | 0.0 | 0.00 | 0.15 | 0.15 | 99 | 1015.5 |
| 20260901123208 | 67 | 231 | 1.0 | 2.0 | 0.00 | 0.15 | 0.15 | 99 | 1015.7 |
| 20260901122706 | 67 | 238 | 1.0 | 1.0 | 0.00 | 0.15 | 0.15 | 99 | 1015.9 |
| 20260901122200 | 67 | 232 | 2.0 | 2.0 | 0.00 | 0.15 | 0.15 | 99 | 1015.8 |
| 20260901121655 | 67 | 293 | 0.0 | 1.0 | 0.00 | 0.15 | 0.15 | 99 | 1015.7 |
| 20260901121150 | 67 | 225 | 3.0 | 3.0 | 0.00 | 0.15 | 0.15 | 99 | 1015.6 |
| 20260901120644 | 67 | 230 | 2.0 | 2.0 | 0.00 | 0.15 | 0.15 | 99 | 1015.8 |
| 20260901120139 | 67 | 250 | 0.0 | 0.0 | 0.00 | 0.15 | 0.15 | 99 | 1015.7 |
| 20260901115635 | 66 | 285 | 1.0 | 1.0 | 0.05 | 0.15 | 0.15 | 99 | 1015.7 |
| 20260901115131 | 66 | 268 | 0.0 | 0.0 | 0.12 | 0.15 | 0.15 | 99 | 1015.6 |
| 20260901114627 | 66 | 274 | 1.0 | 2.0 | 0.07 | 0.14 | 0.14 | 99 | 1015.4 |
| 20260901114126 | 66 | 231 | 1.0 | 1.0 | 0.05 | 0.13 | 0.13 | 99 | 1015.4 |
| 20260901113626 | 66 | 249 | 0.0 | 0.0 | 0.05 | 0.13 | 0.13 | 99 | 1015.8 |
| 20260901113121 | 66 | 303 | 0.0 | 1.0 | 0.00 | 0.12 | 0.12 | 99 | 1016.0 |
| 20260901112620 | 66 | 5 | 1.0 | 2.0 | 0.00 | 0.12 | 0.12 | 99 | 1016.2 |
| 20260901112114 | 66 | 31 | 4.0 | 5.0 | 0.00 | 0.12 | 0.12 | 99 | 1015.7 |
| 20260901111609 | 66 | 10 | 3.0 | 3.0 | 0.00 | 0.12 | 0.12 | 99 | 1015.7 |
| 20260901111107 | 66 | 32 | 2.0 | 2.0 | 0.07 | 0.12 | 0.12 | 99 | 1015.5 |
| 20260901110603 | 66 | 21 | 2.0 | 2.0 | 0.07 | 0.12 | 0.12 | 99 | 1015.6 |
| 20260901110058 | 66 | 97 | 2.0 | 2.0 | 0.05 | 0.11 | 0.11 | 99 | 1015.5 |
| 20260901105555 | 66 | 147 | 2.0 | 2.0 | 0.05 | 0.11 | 0.11 | 99 | 1015.3 |
| 20260901105054 | 66 | 211 | 0.0 | 0.0 | 0.12 | 0.10 | 0.10 | 99 | 1015.3 |
| 20260901104551 | 65 | 317 | 2.0 | 2.0 | 0.19 | 0.10 | 0.10 | 99 | 1015.4 |
| 20260901104046 | 65 | 285 | 1.0 | 1.0 | 0.14 | 0.08 | 0.08 | 99 | 1015.3 |
| 20260901103540 | 65 | 27 | 2.0 | 2.0 | 0.07 | 0.07 | 0.07 | 99 | 1015.2 |
| 20260901103036 | 65 | 86 | 1.0 | 1.0 | 0.00 | 0.06 | 0.06 | 99 | 1015.2 |
| 20260901102535 | 65 | 95 | 2.0 | 2.0 | 0.00 | 0.06 | 0.06 | 99 | 1015.2 |
| 20260901102030 | 65 | 53 | 2.0 | 2.0 | 0.00 | 0.06 | 0.06 | 99 | 1015.2 |
| 20260901101526 | 65 | 51 | 0.0 | 0.0 | 0.00 | 0.06 | 0.06 | 99 | 1015.0 |
| 20260901101025 | 65 | 355 | 0.0 | 0.0 | 0.00 | 0.06 | 0.06 | 99 | 1015.1 |
| 20260901100519 | 65 | 289 | 0.0 | 0.0 | 0.00 | 0.06 | 0.06 | 99 | 1015.3 |
| 20260901100014 | 65 | 251 | 0.0 | 0.0 | 0.00 | 0.06 | 0.06 | 99 | 1015.1 |
| 20260901095512 | 65 | 267 | 0.0 | 0.0 | 0.00 | 0.06 | 0.06 | 99 | 1015.2 |
| 20260901095009 | 65 | 288 | 0.0 | 0.0 | 0.00 | 0.06 | 0.06 | 99 | 1015.2 |
| 20260901094505 | 65 | 178 | 0.0 | 0.0 | 0.00 | 0.06 | 0.06 | 99 | 1015.2 |
| 20260901094004 | 66 | 223 | 0.0 | 0.0 | 0.00 | 0.06 | 0.06 | 99 | 1015.2 |
| 20260901093504 | 66 | 295 | 0.0 | 0.0 | 0.00 | 0.06 | 0.06 | 99 | 1015.2 |
| 20260901092959 | 66 | 273 | 0.0 | 0.0 | 0.00 | 0.06 | 0.06 | 99 | 1015.3 |
| 20260901092455 | 66 | 260 | 0.0 | 0.0 | 0.00 | 0.06 | 0.06 | 99 | 1015.2 |
| 20260901091951 | 65 | 266 | 0.0 | 0.0 | 0.00 | 0.06 | 0.06 | 99 | 1015.3 |
| 20260901091446 | 65 | 53 | 1.0 | 2.0 | 0.00 | 0.06 | 0.06 | 99 | 1015.4 |
| 20260901090941 | 65 | 54 | 1.0 | 1.0 | 0.00 | 0.06 | 0.06 | 99 | 1015.3 |
| 20260901090440 | 65 | 267 | 0.0 | 0.0 | 0.00 | 0.06 | 0.06 | 99 | 1015.6 |
| 20260901085936 | 65 | 290 | 0.0 | 0.0 | 0.00 | 0.06 | 0.06 | 99 | 1015.5 |
| 20260901085432 | 66 | 127 | 1.0 | 2.0 | 0.00 | 0.06 | 0.06 | 99 | 1015.8 |
| 20260901084928 | 66 | 281 | 0.0 | 0.0 | 0.00 | 0.06 | 0.06 | 99 | 1015.9 |
| 20260901084424 | 65 | 273 | 0.0 | 0.0 | 0.17 | 0.06 | 0.06 | 99 | 1016.0 |
| 20260901083920 | 65 | 248 | 0.0 | 0.0 | 0.24 | 0.06 | 0.06 | 99 | 1015.8 |
| 20260901083414 | 65 | 262 | 0.0 | 0.0 | 0.07 | 0.03 | 0.03 | 99 | 1015.7 |